Tracking 30415 objects as of 14-May-2025
HD Live streaming from Space Station
objects crossing your sky now

THORAD AGENA D DEB

Track THORAD AGENA D DEB now!
10-day predictions


NORAD ID: 14467
Int'l Code: 1970-025NT
Perigee: 1,026.2 km
Apogee: 1,028.5 km
Inclination: 100.1 °
Period: 105.6 minutes
Semi major axis: 7398 km
RCS: 0.007 m2 (small)
Launch date: April 8, 1970
Source: United States (US)
Launch site: AIR FORCE WESTERN TEST RANGE (AFWTR)

Note: This is SATELLITE DEBRIS
Your satellite tracking list
Your tracking list is empty




NASA's NSSDC Master Catalog

Two Line Element Set (TLE):
1 14467U 70025NT  25132.14616693  .00000390  00000-0  54829-3 0  9998
2 14467 100.0879 354.3812 0001588 325.6729 161.5991 13.64269237107105
Source of the keplerian elements: AFSPC